Worthington, MN

4:49 PM CST on December 07, 2019 (GMT -0600)
Worthington Municipal

Weather History for KOTG - October, 2019

Change the Weather History Date:

Sunday, October 13, 2019

  Actual Average Record
Temperature  
Mean Temperature 36 °F -  
Max Temperature 41 °F 58 °F 85 °F (1975)
Min Temperature 32 °F 38 °F 21 °F (1979)
Degree Days  
Heating Degree Days 30    
Moisture  
Dew Point 29 °F    
Average Humidity 79    
Maximum Humidity 93    
Minimum Humidity 65    
Precipitation  
Precipitation 0.01 in - - ()
Sea Level Pressure  
Sea Level Pressure 29.89 in    
Wind  
Wind Speed 15 mph (WNW)    
Max Wind Speed 21 mph    
Max Gust Speed 28 mph    
Visibility 10 miles    
Events Snow    
Averages and records for this station are not official NWS values.
T = Trace of Precipitation, MM = Missing Value Source: NWS Daily Summary

Daily Weather History Graph

Daily Weather History Graph

Search for Another Location

Airport or City:

Astronomy

Oct. 13, 2019 Rise Set
Actual Time 7:33 AM CDT 6:42 PM CDT
Civil Twilight 7:05 AM CDT 7:11 PM CDT
Nautical Twilight 6:31 AM CDT 7:44 PM CDT
Astronomical Twilight 5:58 AM CDT 8:17 PM CDT
Moon 7:07 PM CDT (10/13) 7:06 AM CDT (10/13)
Length of Visible Light 12h 06m
Length of Day
11h 08m
Full, 100% of the Moon is Illuminated
Oct 13
Full
Oct 13
Full
Oct 21
Last Quarter
Oct 27
New
Nov 4
First Quarter

Hourly Weather History & Observations

Time (CDT) Temp. Windchill Dew Point Humidity Pressure Visibility Wind Dir Wind Speed Gust Speed Precip Events Conditions
12:56 AM 32.0 °F 21.6 °F 30.0 °F 92% 29.82 in 10.0 mi West 15.0 mph 20.7 mph N/A   Overcast
1:46 AM 32.0 °F 22.5 °F 30.2 °F 93% 29.76 in 10.0 mi West 12.7 mph - N/A   Overcast
1:56 AM 32.0 °F 21.2 °F 30.0 °F 92% 29.82 in 10.0 mi West 16.1 mph - N/A   Overcast
2:56 AM 32.0 °F 21.6 °F 30.0 °F 92% 29.82 in 10.0 mi West 15.0 mph - N/A   Overcast
3:56 AM 32.0 °F 21.6 °F 30.0 °F 92% 29.83 in 10.0 mi West 15.0 mph - N/A   Overcast
4:53 AM 32.0 °F 21.6 °F 30.2 °F 93% 29.77 in 9.0 mi West 15.0 mph - 0.00 in Snow Light Snow
4:56 AM 32.0 °F 21.2 °F 30.0 °F 92% 29.83 in 9.0 mi West 16.1 mph - 0.00 in Snow Light Snow
5:27 AM 32.0 °F 22.1 °F 30.2 °F 93% 29.78 in 10.0 mi West 13.8 mph - 0.00 in   Overcast
5:56 AM 32.0 °F 22.1 °F 30.0 °F 92% 29.84 in 10.0 mi West 13.8 mph - 0.00 in   Overcast
6:56 AM 32.0 °F 21.6 °F 30.0 °F 92% 29.85 in 10.0 mi West 15.0 mph - N/A   Overcast
7:34 AM 32.0 °F 22.1 °F 28.4 °F 87% 29.79 in 10.0 mi West 13.8 mph - N/A   Overcast
7:56 AM 32.0 °F 23.0 °F 28.9 °F 88% 29.85 in 10.0 mi West 11.5 mph - N/A   Overcast
8:56 AM 33.1 °F 22.6 °F 30.0 °F 89% 29.86 in 10.0 mi West 16.1 mph - N/A   Overcast
9:24 AM 33.8 °F 23.5 °F 30.2 °F 87% 29.81 in 10.0 mi West 16.1 mph - 0.01 in   Overcast
9:40 AM 33.8 °F 23.9 °F 30.2 °F 87% 29.82 in 10.0 mi West 15.0 mph - 0.01 in   Overcast
9:56 AM 34.0 °F 24.2 °F 30.0 °F 85% 29.88 in 10.0 mi West 15.0 mph 21.9 mph 0.01 in   Overcast
10:56 AM 37.0 °F 26.4 °F 30.9 °F 79% 29.89 in 10.0 mi West 20.7 mph 26.5 mph N/A   Overcast
11:41 AM 35.6 °F 25.5 °F 30.2 °F 81% 29.85 in 10.0 mi West 17.3 mph - N/A   Overcast
11:56 AM 36.0 °F 26.3 °F 30.0 °F 79% 29.91 in 10.0 mi WNW 16.1 mph - N/A   Overcast
12:56 PM 37.0 °F 27.7 °F 30.9 °F 79% 29.93 in 10.0 mi WNW 16.1 mph - N/A   Overcast
1:56 PM 37.9 °F 28.9 °F 30.0 °F 73% 29.93 in 10.0 mi West 16.1 mph - N/A   Overcast
2:30 PM 37.4 °F 27.5 °F 30.2 °F 75% 29.87 in 10.0 mi West 18.4 mph - N/A   Overcast
2:56 PM 39.0 °F 29.3 °F 28.9 °F 67% 29.93 in 10.0 mi WNW 19.6 mph 25.3 mph N/A   Overcast
3:21 PM 39.2 °F 29.3 °F 28.4 °F 65% 29.88 in 10.0 mi WNW 20.7 mph 27.6 mph N/A   Overcast
3:56 PM 39.9 °F 30.5 °F 28.9 °F 65% 29.94 in 10.0 mi WNW 19.6 mph 25.3 mph N/A   Overcast
4:39 PM 39.2 °F 30.2 °F 28.4 °F 65% 29.90 in 10.0 mi WNW 17.3 mph 24.2 mph N/A   Overcast
4:56 PM 39.0 °F 30.6 °F 28.9 °F 67% 29.96 in 10.0 mi WNW 15.0 mph - N/A   Overcast
5:16 PM 39.2 °F 30.8 °F 28.4 °F 65% 29.92 in 10.0 mi WNW 15.0 mph - N/A   Overcast
5:44 PM 37.4 °F 28.9 °F 28.4 °F 70% 29.92 in 10.0 mi WNW 13.8 mph - N/A   Overcast
5:56 PM 37.9 °F 29.6 °F 28.0 °F 68% 29.98 in 10.0 mi WNW 13.8 mph - N/A   Overcast
6:56 PM 37.9 °F 31.5 °F 28.0 °F 68% 30.00 in 10.0 mi WNW 9.2 mph - N/A   Overcast
7:56 PM 37.9 °F 30.0 °F 28.0 °F 68% 30.02 in 10.0 mi WNW 12.7 mph - N/A   Overcast
8:56 PM 37.0 °F 29.8 °F 28.0 °F 70% 30.03 in 10.0 mi West 10.4 mph - N/A   Overcast
9:56 PM 37.0 °F 31.0 °F 28.0 °F 70% 30.04 in 10.0 mi WNW 8.1 mph - N/A   Overcast
10:48 PM 37.4 °F 29.8 °F 28.4 °F 70% 29.98 in 10.0 mi NW 11.5 mph 17.3 mph N/A   Overcast
10:56 PM 37.0 °F 31.0 °F 28.0 °F 70% 30.03 in 10.0 mi NW 8.1 mph - N/A   Overcast
11:56 PM 35.1 °F 31.0 °F 28.0 °F 76% 30.04 in 10.0 mi NW 4.6 mph - N/A   Mostly Cloudy